Wetbulb
25.71 25.55 25.81 26.15 26.00 25.22 24.42 24.18 25.43 25.11 23.88 22.24 21.87 21.69 21.68 21.63 21.58 21.58 21.55 21.30 21.58 21.65 21.50 21.01 20.74 19.98 18.94 17.90 17.74 17.46 17.13 16.87 16.49 18.28 20.21 19.98 18.02 16.80 16.16 15.93 15.62 15.25 15.15 15.66 15.32 15.30 15.27 15.03 15.62 16.95 18.33 19.20 18.74 18.10 17.69 18.28 17.27 17.00 17.08 17.21 18.18 17.51 16.58 16.72 17.08 16.96 16.60 16.23 17.33
25.33 25.31 26.07 27.80 27.95 26.71 25.15 24.25 24.82 24.78 24.04 22.24 21.97 21.64 21.48 21.77 21.80 21.63 21.23 20.75 21.58 21.64 21.28 20.82 20.05 19.07 18.25 18.07 18.43 18.03 17.44 16.96 16.43 17.72 19.33 19.59 18.34 17.36 16.73 16.48 15.86 15.59 15.52 15.20 14.57 15.20 15.80 14.81 15.23 16.57 17.93 18.70 18.39 18.02 18.05 18.84 17.44 16.98 16.76 16.25 17.53 17.77 17.60 17.63 17.70 17.36 17.00 16.91 18.16
25.34 25.16 25.48 26.22 26.35 25.71 24.79 23.70 23.51 23.12 22.61 21.78 21.55 21.36 21.33 21.61 21.96 21.87 21.55 21.04 20.69 20.33 20.15 20.32 19.70 18.97 18.19 17.66 18.07 17.97 17.51 16.98 16.39 16.77 17.50 18.24 17.77 17.27 16.93 16.98 15.90 16.08 16.71 16.94 15.52 15.72 16.11 15.28 16.10 17.71 19.15 19.41 18.48 18.31 18.44 18.14 17.92 17.68 17.27 16.52 17.67 18.37 18.74 19.03 18.67 18.49 18.63 19.46 20.14
25.09 24.68 24.53 24.79 24.90 24.88 24.65 24.41 23.51 22.85 22.44 22.32 20.53 20.24 20.67 21.30 21.72 21.78 21.13 19.65 18.84 19.02 19.57 19.85 19.48 19.34 19.07 18.45 17.82 17.61 17.95 19.20 17.89 17.11 16.85 17.32 17.25 16.89 16.63 16.56 16.03 15.71 15.71 15.92 15.22 15.15 15.19 14.91 16.61 18.07 18.68 17.62 17.25 17.71 18.54 18.97 18.19 18.31 18.55 18.19 18.61 18.64 18.74 19.39 19.38 19.70 20.13 20.63 21.05
24.81 24.67 24.62 24.76 24.77 24.91 25.00 24.76 23.82 23.16 22.69 22.32 21.24 20.71 20.59 20.71 20.88 20.40 19.77 19.57 19.97 20.29 20.17 19.06 19.17 19.47 19.63 19.26 17.99 17.32 17.56 19.26 21.51 20.41 18.22 17.46 17.21 16.92 16.54 16.00 16.11 15.93 15.70 15.25 15.10 15.32 15.30 14.40 16.51 17.67 17.80 17.12 17.88 18.41 18.56 18.23 17.67 17.69 18.27 19.22 19.39 19.41 19.34 19.47 19.74 20.18 20.56 20.92 21.09
24.94 24.72 24.66 24.85 24.72 24.81 24.87 24.67 23.64 23.04 22.65 22.24 21.34 20.73 20.59 20.87 20.95 20.96 21.02 21.17 20.78 20.03 19.44 19.71 20.16 20.74 20.53 18.85 18.03 17.48 17.25 17.36 20.15 20.29 19.27 18.31 18.05 17.36 16.59 16.06 15.93 15.98 15.96 15.58 15.17 15.13 14.98 14.44 16.72 17.62 17.85 17.96 18.05 18.29 18.14 17.13 17.78 17.97 18.14 18.71 19.25 19.49 19.47 19.25 19.76 20.14 20.34 20.37 20.22
25.21 24.81 24.47 24.45 24.32 24.40 24.46 24.07 23.18 22.42 21.85 21.55 20.89 20.67 20.68 20.95 20.87 20.87 20.94 21.40 20.64 19.86 20.04 22.17 21.76 21.46 20.65 18.85 18.34 17.97 17.69 17.48 18.19 18.57 18.79 18.84 18.48 18.11 17.70 17.33 16.56 16.15 16.01 15.94 15.44 15.38 15.23 14.67 16.50 18.01 19.31 20.83 20.55 19.24 17.91 17.57 17.86 18.16 18.34 18.47 19.26 19.58 19.49 18.82 19.44 19.90 19.95 19.48 19.50
25.38 24.95 24.58 24.28 24.08 24.01 23.88 23.45 22.75 21.97 21.44 21.65 21.32 21.04 20.87 20.94 20.76 20.66 20.62 20.60 20.17 20.21 20.83 22.15 20.76 20.17 19.84 19.18 19.01 18.68 18.28 17.78 17.88 17.98 18.20 18.46 18.13 17.90 17.65 17.37 16.76 16.26 15.86 15.84 15.64 15.60 15.61 15.79 17.12 17.89 18.52 19.58 20.32 19.87 18.61 17.03 16.98 17.30 17.82 18.13 19.03 19.34 19.36 19.25 19.16 19.42 19.56 19.03 18.93
25.21 24.70 24.40 24.07 23.84 23.69 23.53 23.12 22.49 22.04 21.79 21.77 21.67 21.46 21.24 21.07 20.81 20.54 20.33 20.29 21.02 21.12 20.98 21.24 20.12 19.66 19.54 19.39 19.34 19.18 19.03 18.70 18.45 18.33 18.17 18.16 17.89 17.65 17.50 17.20 16.80 16.40 16.10 15.88 15.66 15.39 15.54 16.46 17.61 18.22 18.73 19.44 19.87 19.79 19.01 17.11 16.53 16.58 17.11 18.04 18.52 18.89 19.21 19.39 18.98 18.94 18.98 18.88 18.80
24.94 24.41 23.88 23.57 23.26 23.30 23.30 22.77 22.37 22.00 21.83 21.79 21.63 21.57 22.04 23.24 22.18 21.27 20.94 21.56 22.12 21.50 20.63 20.51 19.77 19.43 19.31 19.44 19.64 19.70 19.59 19.43 19.15 18.78 18.53 18.71 18.70 18.15 17.59 17.57 17.10 16.82 16.62 16.34 16.25 15.76 15.61 16.42 17.39 17.96 18.39 18.81 18.65 18.55 18.22 17.37 16.86 16.67 17.03 18.59 18.86 18.65 18.48 19.00 18.76 18.66 18.79 19.26 19.35
24.98 24.43 23.87 23.61 23.10 23.22 23.25 22.35 22.16 22.08 22.00 21.84 21.55 21.39 22.06 24.06 23.02 22.18 21.82 22.12 21.64 20.77 20.10 20.27 19.75 19.49 19.42 19.64 19.97 20.07 20.04 19.85 19.74 19.25 18.84 18.66 19.38 18.99 18.23 17.99 17.56 17.23 17.06 16.93 16.72 16.59 16.74 17.19 17.54 17.63 17.77 18.29 18.01 17.80 17.58 17.15 17.05 16.74 17.00 18.04 18.36 18.12 17.95 18.31 18.70 18.74 18.81 19.22 19.32
25.13 24.49 23.95 23.66 23.10 23.01 22.83 22.10 22.10 22.10 22.00 21.88 21.63 21.33 21.44 22.56 22.56 22.58 22.34 21.46 20.90 20.45 20.18 20.16 19.90 19.75 19.82 20.17 20.27 20.66 20.69 19.86 19.62 19.35 19.01 18.52 18.66 18.55 18.37 18.13 17.83 17.51 17.25 17.20 16.89 17.25 17.69 17.75 17.83 17.74 17.65 17.62 18.21 18.32 17.98 17.16 17.08 16.91 17.00 17.38 17.52 17.59 17.63 17.93 18.29 18.77 19.11 19.18 19.21
25.24 24.56 23.87 23.43 22.83 22.47 22.26 22.00 21.96 21.92 21.90 21.84 21.87 21.61 21.51 21.98 22.56 22.72 22.30 20.98 20.96 20.86 20.69 20.28 20.26 20.10 20.04 20.37 20.39 20.50 20.41 19.95 19.50 19.47 19.45 19.01 18.65 18.35 18.11 18.10 17.93 17.65 17.47 17.49 17.21 17.52 17.91 17.91 17.63 17.63 17.65 17.65 18.22 18.51 18.41 17.57 17.26 17.15 17.20 17.39 17.39 17.53 17.68 17.89 18.25 18.68 19.05 19.09 19.28
25.09 24.41 23.74 23.14 22.53 22.24 22.08 21.90 21.96 21.92 21.94 21.90 22.02 21.93 21.78 21.67 22.50 22.79 22.47 21.24 21.20 21.08 20.78 20.41 20.76 20.90 20.81 20.57 20.45 20.33 20.24 20.07 19.59 19.34 19.32 19.39 19.04 18.56 18.23 18.26 18.04 17.81 17.76 17.96 17.63 17.46 17.53 17.93 17.91 17.91 17.83 17.78 18.00 18.22 18.22 17.81 17.61 17.55 17.55 17.64 17.57 17.66 17.91 18.21 18.42 18.66 18.70 18.66 19.33
24.77 24.22 23.59 22.96 22.38 22.18 22.08 21.88 22.10 22.20 22.06 21.90 22.12 22.17 21.96 21.65 22.39 22.91 22.81 21.56 21.38 21.16 20.84 20.35 20.73 21.33 21.41 20.88 20.57 20.33 20.14 20.01 19.64 19.31 19.23 19.48 19.13 18.73 18.45 18.55 18.27 18.16 18.17 18.33 18.17 17.83 17.63 17.74 17.91 18.00 18.03 17.98 17.96 18.02 18.02 17.96 17.85 17.88 17.97 18.01 18.01 18.06 18.22 18.39 18.56 18.60 18.71 18.71 19.62
24.56 24.05 23.45 22.87 22.40 22.16 22.16 22.06 22.41 22.47 22.38 22.24 22.30 22.24 22.07 21.73 22.12 22.66 22.79 21.80 21.50 21.18 20.83 20.45 20.59 20.84 21.18 21.52 21.02 20.49 20.08 19.91 19.63 19.34 19.11 19.11 18.98 18.77 18.61 18.68 18.65 18.64 18.57 18.51 18.48 18.40 18.29 18.22 18.27 18.18 18.03 17.98 17.98 18.00 18.05 18.05 18.07 18.07 18.21 18.38 18.43 18.47 18.53 18.86 18.95 18.86 18.90 19.34 20.40
24.47 23.97 23.39 22.89 22.40 22.18 22.18 22.30 22.63 22.71 22.67 22.51 22.38 22.24 22.13 21.90 21.69 22.36 22.94 22.65 21.80 21.20 20.75 20.55 20.77 20.80 21.02 21.83 21.77 21.17 20.39 19.92 19.69 19.46 19.29 19.31 19.14 18.98 18.89 18.89 19.26 19.34 19.23 18.95 18.82 18.79 18.68 18.68 18.71 18.49 18.21 17.97 17.97 17.97 17.94 17.98 18.14 18.32 18.47 18.69 18.82 18.71 18.88 19.63 19.65 19.35 19.33 20.15 21.15
24.40 23.96 23.44 22.93 22.53 22.30 22.22 22.32 22.59 22.77 22.81 22.75 22.49 22.37 22.18 21.94 21.55 21.96 22.77 23.29 22.16 21.30 20.85 20.65 20.88 20.92 20.91 21.09 21.52 21.61 21.25 20.45 20.09 19.85 19.74 19.72 19.60 19.50 19.43 19.29 19.79 19.93 19.72 19.42 19.23 19.22 19.20 19.12 18.93 18.87 18.67 18.32 18.14 18.10 18.06 18.10 18.30 18.45 18.67 18.98 19.09 18.97 19.06 19.35 19.31 19.37 19.83 20.83 21.74
24.43 23.93 23.42 22.95 22.73 22.58 22.60 22.79 22.86 22.94 22.99 23.03 22.83 22.54 22.22 21.94 21.48 21.54 21.94 22.53 22.43 21.84 21.24 21.00 20.92 20.86 20.87 20.81 21.01 21.81 22.34 21.45 20.76 20.32 20.12 20.10 20.05 19.90 19.78 19.68 19.90 20.04 19.95 19.70 19.64 19.60 19.49 19.34 19.24 19.13 18.98 18.79 18.57 18.48 18.44 18.44 18.60 18.79 19.03 19.29 19.31 19.33 19.28 19.12 19.18 19.74 20.63 21.55 22.24
24.55 24.09 23.62 23.31 23.06 22.91 22.93 23.21 23.16 23.20 23.29 23.31 23.00 22.58 22.16 21.84 21.58 21.38 21.38 21.72 22.41 22.17 21.66 21.38 21.10 20.90 20.80 20.65 20.58 21.32 22.16 22.40 21.62 21.03 20.61 20.40 20.33 20.16 20.09 20.00 20.00 20.03 19.93 19.70 19.65 19.48 19.30 19.28 19.24 19.13 18.98 18.92 18.77 18.57 18.53 18.57 18.79 19.03 19.34 19.62 19.72 19.77 19.74 19.74 20.10 20.86 21.59 22.17 22.59
24.73 24.36 24.06 23.79 23.50 23.23 23.17 23.28 23.42 23.42 23.40 23.32 22.94 22.55 22.16 21.84 21.50 21.24 21.36 21.81 22.25 22.13 21.85 21.68 21.38 21.12 20.82 20.58 20.41 20.62 21.36 22.56 22.15 21.70 21.30 21.08 20.90 20.80 20.67 20.53 20.34 20.14 20.09 19.84 19.62 19.35 19.15 19.24 19.24 19.18 19.12 19.04 19.02 18.80 18.67 18.80 19.02 19.14 19.43 19.86 20.27 20.45 20.64 20.93 21.67 22.27 22.78 23.27 23.66
24.95 24.72 24.46 24.13 23.79 23.59 23.46 23.42 23.46 23.44 23.36 23.22 22.91 22.61 22.23 21.76 21.48 21.36 21.52 21.91 21.97 21.95 21.85 21.91 21.75 21.51 21.25 20.99 20.82 20.77 21.16 22.12 22.04 21.93 21.77 21.58 21.59 21.54 21.42 21.19 20.55 20.23 20.06 19.87 19.65 19.38 19.21 19.27 19.33 19.27 19.12 19.11 18.98 18.98 19.10 19.41 19.45 19.53 19.78 20.21 20.80 21.24 21.71 22.30 23.28 23.91 24.40 24.70 25.08
25.20 24.94 24.62 24.29 24.03 24.13 24.22 23.79 23.49 23.28 23.16 23.04 22.79 22.47 22.13 21.79 21.56 21.44 21.36 21.38 21.86 21.92 21.92 22.02 22.07 21.99 21.82 21.72 21.56 21.32 21.19 21.36 21.45 21.56 21.61 21.58 21.53 21.42 21.19 20.95 20.45 20.19 20.18 20.27 20.05 19.60 19.12 18.98 18.98 18.90 18.75 18.76 18.58 18.80 19.07 19.38 19.67 19.98 20.41 21.12 21.83 22.59 23.47 24.51 25.50 26.06 26.33 26.47 26.41
25.19 24.93 24.67 24.39 23.86 23.86 23.92 23.67 23.24 22.99 22.91 22.83 22.61 22.35 22.05 21.76 21.54 21.32 21.08 20.94 21.39 21.67 21.88 22.19 22.31 22.34 22.23 22.17 22.05 21.72 21.42 21.18 21.20 21.23 21.11 21.12 21.12 20.81 20.50 20.25 20.20 20.21 20.48 20.83 21.49 21.58 21.34 21.03 20.34 20.00 19.76 19.57 19.45 19.64 19.82 19.89 20.38 21.18 22.06 22.86 23.70 24.77 26.03 27.22 27.82 27.96 27.71 27.22 26.51
25.00 24.83 24.57 24.18 23.69 23.51 23.43 23.34 22.98 22.84 22.77 22.79 22.61 22.33 21.98 21.68 21.50 21.18 20.92 20.72 21.01 21.32 21.70 21.97 22.20 22.13 22.01 22.06 21.96 21.81 21.62 21.49 21.47 21.31 21.07 20.85 20.75 20.45 20.25 20.11 20.17 20.43 21.04 22.20 25.39 27.26 27.99 27.49 26.19 25.01 23.99 23.28 22.81 22.72 22.76 22.85 23.22 23.89 24.73 25.50 26.32 27.29 28.27 28.89 28.55 27.63 26.44 25.42 24.91
24.68 24.45 24.22 23.97 23.63 23.33 23.13 23.07 22.92 22.88 22.86 22.86 22.53 22.19 21.88 21.67 21.42 21.18 20.88 20.72 20.88 21.19 21.46 21.76 21.92 22.26 22.32 21.91 21.66 21.61 21.57 21.61 21.68 21.55 21.28 21.05 20.71 20.37 20.16 20.21 20.47 20.52 21.42 24.16 27.43 29.53 30.77 31.57 31.54 30.64 29.29 27.88 27.36 27.16 27.19 27.50 27.31 27.30 27.34 27.50 28.20 28.88 29.22 29.12 27.65 25.87 24.49 24.17 23.91
24.41 24.12 23.98 23.92 23.51 23.19 22.99 23.10 23.06 22.94 22.82 22.65 22.29 21.98 21.74 21.61 21.42 21.22 20.94 20.86 20.93 21.14 21.35 21.49 21.65 22.82 23.52 22.19 21.63 21.34 21.34 21.50 21.61 21.59 21.39 21.25 20.97 20.58 20.32 20.43 20.62 20.81 22.03 25.59 28.55 30.38 31.49 32.39 33.07 33.14 32.44 30.77 30.21 29.97 29.99 30.14 29.46 29.00 28.74 28.65 29.18 29.36 29.12 28.20 26.29 24.97 24.22 23.97 23.70
24.29 24.12 24.02 23.70 23.40 23.19 23.15 23.12 22.96 22.83 22.70 22.54 22.26 22.04 21.85 21.56 21.34 21.18 21.06 21.06 21.11 21.07 21.06 21.20 21.65 22.70 23.34 22.43 21.83 21.51 21.44 21.53 21.64 21.62 21.50 21.33 21.24 20.89 20.61 20.69 20.65 21.70 24.07 27.72 29.64 31.05 32.03 32.80 33.41 33.81 33.70 32.74 31.43 30.92 30.80 30.70 30.02 30.01 30.01 29.54 29.83 29.19 28.03 26.46 24.78 23.79 23.39 23.28 23.04
24.30 24.19 23.97 23.63 23.41 23.29 23.20 22.99 22.83 22.81 22.75 22.58 22.32 22.14 21.82 21.48 21.32 21.24 21.20 21.16 21.02 20.86 20.93 21.16 21.75 22.28 22.43 22.28 22.17 21.97 21.87 21.68 21.82 21.75 21.58 21.22 21.07 20.89 20.74 20.68 20.74 22.60 25.65 29.30 30.55 31.60 32.38 33.09 33.65 34.10 34.37 34.16 32.38 31.43 31.03 31.03 30.87 30.81 30.66 30.33 29.64 28.55 26.99 25.31 24.40 23.92 23.64 23.19 22.66
24.43 24.26 24.00 23.73 23.56 23.40 23.20 22.97 22.97 22.97 22.91 22.71 22.38 22.04 21.66 21.36 21.24 21.16 21.14 21.06 20.96 21.08 21.38 21.67 21.81 21.73 21.75 22.05 22.33 22.33 22.13 21.99 22.04 21.90 21.54 21.12 20.85 20.73 20.89 21.63 21.18 22.59 25.50 29.41 30.80 31.84 32.62 33.21 33.70 34.13 34.49 34.65 33.36 32.19 31.46 31.35 31.24 31.01 30.76 30.16 28.94 27.12 25.44 24.09 23.47 23.42 23.58 23.64 22.63
24.53 24.33 24.15 23.96 23.66 23.52 23.32 23.24 23.16 23.01 22.85 22.64 22.22 21.86 21.58 21.26 21.14 21.16 21.20 21.32 21.44 22.08 22.60 22.27 21.71 21.49 21.57 22.06 22.28 22.37 22.28 22.19 22.06 21.80 21.47 21.01 21.84 21.89 21.64 21.39 21.06 22.58 25.50 29.17 30.65 31.76 32.59 33.15 33.64 34.00 34.36 34.64 33.56 32.41 31.65 31.71 31.44 31.08 30.52 29.70 27.71 25.93 24.67 24.16 23.84 23.75 23.49 22.60 21.83
24.58 24.41 24.27 23.99 23.79 23.65 23.49 23.33 23.12 22.85 22.63 22.32 21.94 21.70 21.52 21.38 21.44 21.50 21.78 22.06 22.16 22.40 22.46 22.04 21.57 21.39 21.43 21.73 22.01 22.15 22.18 22.06 21.87 21.64 21.46 21.19 21.23 21.27 21.33 21.49 20.93 22.41 25.34 29.01 30.54 31.68 32.46 33.11 33.53 33.89 34.32 34.62 33.65 32.63 31.81 31.81 31.17 30.34 29.19 27.76 25.76 24.54 24.42 25.36 25.44 24.49 22.96 21.52 20.97
24.62 24.50 24.29 23.99 23.85 23.77 23.61 23.34 22.95 22.67 22.44 22.16 21.88 21.70 21.62 21.58 21.72 21.84 22.00 22.34 22.46 22.23 21.90 21.73 21.47 21.35 21.33 21.36 21.64 21.78 21.80 21.92 21.98 22.39 22.76 22.55 21.77 21.25 21.16 21.68 21.08 23.10 26.26 29.22 30.57 31.69 32.51 33.04 33.46 33.90 34.25 34.59 33.59 32.47 31.59 31.16 30.14 28.99 27.64 26.20 25.09 24.45 24.31 24.82 24.96 23.90 22.37 20.85 20.79
24.61 24.51 24.31 24.10 24.06 23.85 23.53 23.16 22.79 22.49 22.22 21.92 21.80 21.74 21.74 21.70 21.70 21.70 21.94 22.50 22.62 22.42 22.17 22.14 21.95 21.87 21.80 21.82 21.87 21.85 22.05 22.75 22.36 22.08 22.00 22.13 21.70 21.47 21.38 21.46 21.26 23.89 27.42 29.61 30.81 31.87 32.59 33.11 33.52 33.88 34.18 34.43 33.08 31.63 30.40 29.77 28.72 27.58 26.33 25.16 24.72 24.64 24.75 24.90 23.93 22.44 21.06 20.30 21.27
24.64 24.44 24.25 24.16 24.12 23.84 23.49 23.08 22.67 22.28 22.00 21.66 21.66 21.68 21.80 21.79 21.72 21.80 22.18 22.99 23.26 22.86 22.39 22.48 22.49 22.49 22.35 22.19 22.24 22.24 22.30 22.80 22.22 21.82 21.59 21.50 21.35 21.36 21.49 21.54 21.54 24.33 27.74 29.76 30.94 31.87 32.54 33.08 33.45 33.76 33.96 33.73 32.16 30.69 29.40 28.68 27.89 26.63 25.65 25.38 25.08 24.99 24.90 24.81 23.47 22.01 20.73 20.27 20.76
24.81 24.58 24.35 24.15 24.04 23.80 23.49 23.06 22.57 22.16 21.82 21.60 21.54 21.60 21.68 21.84 21.98 22.28 22.82 23.92 23.63 22.87 22.20 22.21 22.32 22.27 22.10 21.85 22.03 22.45 22.71 22.24 21.93 21.76 21.65 21.70 21.25 20.89 20.83 20.98 21.16 23.83 27.23 29.63 30.84 31.76 32.46 33.01 33.32 33.52 33.45 32.58 30.92 29.83 29.14 28.55 27.79 26.78 25.76 25.55 25.72 25.85 25.72 25.47 24.40 23.25 22.19 21.37 20.85
25.17 24.91 24.62 24.31 24.08 23.80 23.49 23.10 22.55 22.06 21.78 21.66 21.72 21.72 21.80 21.90 22.08 22.48 23.14 24.05 23.21 22.47 22.01 21.95 21.90 21.80 21.73 21.69 21.81 22.27 22.56 22.33 21.98 21.84 21.98 22.55 21.99 21.32 20.84 20.97 20.58 22.54 25.76 28.98 30.40 31.49 32.21 32.72 33.07 33.21 32.71 31.24 29.78 29.02 28.60 28.34 27.84 27.15 26.35 25.70 25.79 25.79 25.83 25.93 24.95 23.73 22.46 21.47 22.01
25.57 25.18 24.88 24.52 24.25 23.89 23.55 23.14 22.59 22.22 21.96 21.96 22.08 22.20 22.24 22.24 22.24 22.56 23.22 24.38 23.07 22.29 21.91 21.79 21.67 21.70 21.78 21.93 21.96 22.12 22.24 22.27 22.42 22.22 22.02 22.31 22.26 21.86 21.39 21.12 20.58 21.72 24.24 27.80 29.70 30.92 31.77 32.36 32.82 32.90 32.28 30.48 29.39 28.82 28.53 28.26 27.79 27.25 26.79 26.28 26.28 25.58 24.83 24.58 23.96 23.00 21.91 20.66 25.08
25.94 25.58 25.18 24.77 24.46 24.11 23.73 23.20 22.81 22.57 22.41 22.37 22.44 22.49 22.51 22.52 22.51 22.85 23.50 24.55 23.47 22.73 22.17 21.81 21.79 21.89 22.18 22.60 22.28 21.96 21.79 21.79 22.61 22.75 22.51 21.83 22.30 22.84 22.89 21.86 21.08 21.72 23.70 27.11 29.00 30.37 31.30 32.09 32.51 32.77 32.42 31.06 29.48 28.70 28.25 27.94 27.26 26.72 26.37 26.37 26.57 24.92 22.97 22.12 21.54 21.71 21.77 20.66 26.84
26.25 25.87 25.47 25.03 24.71 24.37 23.95 23.44 23.18 23.12 23.05 22.89 22.73 22.63 22.63 22.71 23.11 23.55 24.01 24.42 23.64 23.13 22.70 22.25 22.13 22.25 22.72 23.66 22.70 21.85 21.35 21.33 21.77 22.41 22.83 22.56 23.01 24.41 25.17 23.49 22.21 22.31 23.86 26.98 28.88 30.18 31.10 31.92 32.45 32.79 32.48 31.03 29.15 28.10 27.59 27.39 26.85 26.28 25.97 26.26 25.93 24.70 23.12 21.76 20.97 21.12 21.30 20.58 24.77
26.52 26.13 25.68 25.32 25.00 24.68 24.27 23.83 23.65 23.54 23.49 23.32 23.09 23.15 23.38 23.71 23.84 23.79 23.73 23.76 23.46 23.14 22.96 22.74 22.46 22.45 22.93 24.10 23.14 22.12 21.34 21.14 21.31 21.73 22.38 23.30 23.49 24.90 25.78 24.60 23.28 22.70 23.33 25.85 28.52 30.16 31.13 31.85 32.29 32.67 32.41 30.91 28.90 27.80 27.29 27.03 26.50 26.09 25.84 25.79 25.32 24.85 24.09 22.76 21.68 21.12 20.85 20.73 21.00
MSLP
1019.52 1019.68 1019.84 1020.00 1020.16 1020.36 1020.56 1020.68 1020.76 1020.96 1021.16 1021.40 1021.60 1021.80 1022.00 1022.20 1022.40 1022.52 1022.68 1022.84 1023.00 1023.04 1023.12 1023.32 1023.44 1023.64 1023.88 1024.16 1024.40 1024.56 1024.72 1024.88 1025.08 1025.16 1025.24 1025.32 1025.48 1025.60 1025.72 1025.84 1025.96 1026.00 1026.12 1026.16 1026.20 1026.28 1026.36 1026.44 1026.52 1026.52 1026.52 1026.48 1026.48 1026.48 1026.48 1026.48 1026.56 1026.60 1026.60 1026.60 1026.56 1026.52 1026.48 1026.44 1026.36 1026.28 1026.28 1026.32 1026.28
1019.12 1019.28 1019.44 1019.60 1019.76 1020.00 1020.28 1020.48 1020.60 1020.72 1020.88 1021.04 1021.24 1021.40 1021.60 1021.80 1021.96 1022.16 1022.32 1022.52 1022.56 1022.68 1022.84 1023.04 1023.20 1023.44 1023.68 1023.88 1024.04 1024.28 1024.44 1024.64 1024.80 1024.88 1025.00 1025.12 1025.24 1025.36 1025.48 1025.64 1025.76 1025.84 1025.88 1026.00 1026.04 1026.12 1026.16 1026.24 1026.32 1026.36 1026.28 1026.28 1026.28 1026.28 1026.24 1026.20 1026.32 1026.40 1026.40 1026.36 1026.28 1026.28 1026.24 1026.16 1026.04 1026.00 1026.00 1026.00 1026.00
1018.72 1018.96 1019.16 1019.36 1019.48 1019.68 1019.92 1020.12 1020.28 1020.44 1020.56 1020.72 1020.88 1021.08 1021.28 1021.44 1021.56 1021.76 1021.96 1022.08 1022.24 1022.44 1022.64 1022.84 1023.00 1023.24 1023.44 1023.64 1023.84 1024.00 1024.16 1024.32 1024.48 1024.64 1024.76 1024.88 1025.00 1025.16 1025.28 1025.40 1025.56 1025.64 1025.68 1025.72 1025.84 1025.88 1025.88 1026.00 1026.04 1026.04 1026.00 1026.00 1026.00 1026.00 1026.00 1025.96 1026.08 1026.16 1026.16 1026.12 1026.08 1026.04 1026.00 1025.88 1025.76 1025.72 1025.72 1025.64 1025.60
1018.36 1018.60 1018.80 1018.96 1019.08 1019.20 1019.32 1019.48 1019.72 1019.96 1020.16 1020.36 1020.64 1020.84 1021.00 1021.16 1021.28 1021.44 1021.64 1021.84 1022.12 1022.28 1022.44 1022.56 1022.76 1022.96 1023.12 1023.32 1023.56 1023.72 1023.84 1023.96 1024.16 1024.36 1024.52 1024.60 1024.76 1024.96 1025.12 1025.24 1025.36 1025.44 1025.48 1025.56 1025.64 1025.68 1025.72 1025.76 1025.84 1025.84 1025.80 1025.76 1025.80 1025.80 1025.76 1025.72 1025.80 1025.84 1025.84 1025.80 1025.80 1025.76 1025.72 1025.56 1025.44 1025.44 1025.40 1025.28 1025.20
1018.00 1018.16 1018.28 1018.40 1018.52 1018.64 1018.80 1019.00 1019.28 1019.56 1019.80 1020.04 1020.40 1020.64 1020.84 1020.96 1021.08 1021.28 1021.48 1021.72 1021.92 1022.00 1022.08 1022.28 1022.48 1022.68 1022.84 1023.04 1023.28 1023.44 1023.60 1023.72 1023.84 1024.00 1024.20 1024.40 1024.56 1024.72 1024.84 1025.00 1025.16 1025.20 1025.28 1025.36 1025.40 1025.44 1025.52 1025.56 1025.60 1025.56 1025.56 1025.56 1025.56 1025.56 1025.52 1025.56 1025.60 1025.64 1025.56 1025.56 1025.48 1025.48 1025.44 1025.28 1025.20 1025.12 1025.04 1024.96 1024.84
1017.44 1017.60 1017.76 1017.96 1018.16 1018.32 1018.52 1018.72 1018.92 1019.16 1019.44 1019.80 1020.08 1020.28 1020.48 1020.68 1020.84 1021.00 1021.16 1021.36 1021.44 1021.60 1021.84 1022.04 1022.24 1022.44 1022.60 1022.84 1023.00 1023.20 1023.36 1023.52 1023.60 1023.72 1023.92 1024.16 1024.32 1024.52 1024.68 1024.84 1024.92 1025.00 1025.04 1025.16 1025.16 1025.20 1025.28 1025.40 1025.40 1025.36 1025.32 1025.36 1025.32 1025.28 1025.28 1025.40 1025.44 1025.44 1025.40 1025.32 1025.20 1025.16 1025.16 1025.04 1024.92 1024.84 1024.80 1024.72 1024.60
1016.88 1017.12 1017.40 1017.56 1017.80 1018.00 1018.24 1018.44 1018.68 1018.96 1019.24 1019.52 1019.72 1019.92 1020.08 1020.24 1020.44 1020.60 1020.72 1020.84 1021.12 1021.44 1021.64 1021.80 1021.96 1022.12 1022.32 1022.56 1022.76 1022.96 1023.12 1023.24 1023.36 1023.52 1023.68 1023.84 1024.00 1024.24 1024.44 1024.56 1024.64 1024.72 1024.84 1024.84 1024.96 1025.00 1025.08 1025.16 1025.16 1025.12 1025.08 1025.04 1025.04 1025.00 1025.00 1025.16 1025.16 1025.16 1025.16 1025.04 1024.92 1024.84 1024.84 1024.76 1024.68 1024.60 1024.52 1024.44 1024.32
1016.56 1016.80 1017.00 1017.28 1017.48 1017.72 1017.92 1018.16 1018.44 1018.72 1019.00 1019.12 1019.32 1019.44 1019.56 1019.84 1020.00 1020.20 1020.40 1020.64 1020.88 1021.12 1021.28 1021.44 1021.64 1021.80 1022.00 1022.24 1022.44 1022.60 1022.80 1023.00 1023.12 1023.28 1023.44 1023.60 1023.80 1024.00 1024.12 1024.28 1024.44 1024.48 1024.56 1024.60 1024.72 1024.76 1024.84 1024.88 1024.88 1024.84 1024.84 1024.84 1024.80 1024.76 1024.76 1024.84 1024.92 1024.92 1024.84 1024.80 1024.64 1024.56 1024.52 1024.48 1024.44 1024.32 1024.28 1024.16 1024.04
1016.36 1016.56 1016.76 1017.00 1017.24 1017.44 1017.64 1017.84 1018.12 1018.36 1018.56 1018.72 1018.84 1019.00 1019.24 1019.44 1019.68 1019.92 1020.16 1020.40 1020.52 1020.72 1020.96 1021.12 1021.28 1021.52 1021.72 1021.84 1022.08 1022.28 1022.44 1022.64 1022.84 1023.00 1023.20 1023.36 1023.56 1023.72 1023.84 1024.00 1024.16 1024.24 1024.28 1024.36 1024.44 1024.48 1024.56 1024.60 1024.60 1024.56 1024.56 1024.56 1024.56 1024.48 1024.48 1024.56 1024.64 1024.68 1024.60 1024.52 1024.44 1024.28 1024.24 1024.16 1024.12 1024.04 1024.00 1023.88 1023.80
1015.96 1016.20 1016.48 1016.80 1017.00 1017.16 1017.40 1017.68 1017.88 1018.04 1018.20 1018.36 1018.52 1018.72 1019.00 1019.16 1019.40 1019.60 1019.80 1019.96 1020.16 1020.44 1020.68 1020.84 1021.04 1021.28 1021.48 1021.60 1021.76 1021.92 1022.12 1022.32 1022.52 1022.72 1022.88 1023.08 1023.24 1023.40 1023.56 1023.72 1023.84 1023.92 1024.00 1024.08 1024.16 1024.24 1024.28 1024.32 1024.32 1024.28 1024.28 1024.28 1024.28 1024.28 1024.28 1024.36 1024.44 1024.44 1024.36 1024.24 1024.16 1024.04 1023.92 1023.84 1023.80 1023.76 1023.72 1023.60 1023.48
1015.56 1015.84 1016.16 1016.44 1016.64 1016.92 1017.24 1017.52 1017.72 1017.84 1018.00 1018.12 1018.28 1018.52 1018.72 1018.88 1019.04 1019.24 1019.44 1019.68 1019.96 1020.16 1020.36 1020.52 1020.76 1021.00 1021.16 1021.32 1021.44 1021.60 1021.80 1022.00 1022.20 1022.40 1022.56 1022.72 1022.84 1023.04 1023.20 1023.36 1023.48 1023.56 1023.68 1023.76 1023.84 1023.96 1024.00 1024.04 1024.04 1024.04 1024.00 1024.00 1024.08 1024.12 1024.16 1024.16 1024.20 1024.16 1024.12 1024.00 1023.88 1023.80 1023.72 1023.56 1023.48 1023.48 1023.44 1023.28 1023.12
1015.32 1015.60 1015.84 1016.08 1016.40 1016.72 1017.00 1017.28 1017.44 1017.60 1017.76 1017.92 1018.08 1018.28 1018.44 1018.56 1018.72 1018.92 1019.20 1019.52 1019.72 1019.84 1020.00 1020.20 1020.44 1020.64 1020.84 1021.00 1021.12 1021.32 1021.52 1021.72 1021.92 1022.12 1022.28 1022.44 1022.60 1022.76 1022.92 1023.04 1023.16 1023.28 1023.36 1023.44 1023.56 1023.64 1023.72 1023.72 1023.72 1023.72 1023.76 1023.80 1023.84 1023.84 1023.84 1023.88 1023.92 1023.84 1023.80 1023.68 1023.64 1023.56 1023.44 1023.20 1023.12 1023.12 1023.08 1022.96 1022.84
1015.12 1015.44 1015.72 1015.92 1016.20 1016.52 1016.76 1016.96 1017.12 1017.28 1017.44 1017.60 1017.76 1017.96 1018.12 1018.28 1018.44 1018.68 1018.92 1019.16 1019.32 1019.48 1019.72 1019.96 1020.16 1020.32 1020.48 1020.64 1020.84 1021.08 1021.28 1021.44 1021.64 1021.84 1022.00 1022.16 1022.28 1022.48 1022.68 1022.80 1022.92 1023.00 1023.12 1023.16 1023.28 1023.32 1023.36 1023.44 1023.44 1023.44 1023.48 1023.52 1023.56 1023.56 1023.56 1023.60 1023.60 1023.56 1023.48 1023.40 1023.32 1023.24 1023.08 1022.88 1022.76 1022.72 1022.68 1022.60 1022.52
1015.00 1015.24 1015.44 1015.72 1016.00 1016.24 1016.44 1016.64 1016.80 1016.96 1017.12 1017.28 1017.40 1017.56 1017.80 1018.00 1018.20 1018.40 1018.56 1018.80 1018.96 1019.16 1019.44 1019.72 1019.88 1020.00 1020.16 1020.28 1020.56 1020.76 1020.96 1021.12 1021.36 1021.56 1021.72 1021.84 1022.00 1022.20 1022.40 1022.56 1022.64 1022.76 1022.84 1022.84 1022.96 1023.00 1023.04 1023.08 1023.12 1023.12 1023.20 1023.24 1023.24 1023.24 1023.28 1023.32 1023.28 1023.24 1023.20 1023.12 1023.00 1022.84 1022.72 1022.56 1022.44 1022.36 1022.32 1022.28 1022.16
1014.80 1014.96 1015.16 1015.44 1015.72 1015.92 1016.12 1016.28 1016.44 1016.56 1016.72 1016.92 1017.04 1017.24 1017.48 1017.72 1017.88 1018.08 1018.28 1018.44 1018.64 1018.84 1019.12 1019.40 1019.56 1019.72 1019.84 1020.04 1020.28 1020.44 1020.68 1020.84 1021.08 1021.24 1021.44 1021.56 1021.72 1021.92 1022.08 1022.24 1022.36 1022.44 1022.56 1022.60 1022.68 1022.72 1022.72 1022.76 1022.84 1022.84 1022.88 1022.92 1022.92 1022.92 1022.96 1023.00 1023.00 1022.92 1022.84 1022.76 1022.68 1022.52 1022.36 1022.20 1022.12 1022.04 1022.00 1021.88 1021.80
1014.48 1014.64 1014.88 1015.20 1015.44 1015.56 1015.72 1015.88 1016.00 1016.16 1016.36 1016.52 1016.68 1016.92 1017.12 1017.36 1017.56 1017.72 1017.96 1018.16 1018.36 1018.60 1018.84 1019.04 1019.24 1019.44 1019.64 1019.80 1020.00 1020.24 1020.44 1020.60 1020.80 1020.96 1021.12 1021.28 1021.44 1021.60 1021.80 1021.92 1022.04 1022.16 1022.24 1022.28 1022.36 1022.40 1022.44 1022.44 1022.52 1022.56 1022.60 1022.64 1022.64 1022.64 1022.64 1022.68 1022.64 1022.60 1022.52 1022.44 1022.28 1022.16 1022.04 1021.84 1021.76 1021.72 1021.64 1021.56 1021.44
1014.16 1014.36 1014.60 1014.84 1015.00 1015.12 1015.28 1015.44 1015.56 1015.72 1015.88 1016.04 1016.28 1016.52 1016.72 1016.96 1017.20 1017.40 1017.56 1017.72 1018.00 1018.28 1018.52 1018.72 1018.88 1019.12 1019.36 1019.56 1019.72 1019.96 1020.16 1020.32 1020.48 1020.64 1020.80 1020.96 1021.12 1021.28 1021.44 1021.56 1021.72 1021.84 1021.92 1022.00 1022.00 1022.04 1022.08 1022.16 1022.20 1022.28 1022.32 1022.32 1022.32 1022.32 1022.32 1022.32 1022.28 1022.28 1022.16 1022.04 1021.96 1021.84 1021.72 1021.56 1021.44 1021.36 1021.28 1021.24 1021.04
1013.84 1014.00 1014.24 1014.44 1014.60 1014.72 1014.84 1015.00 1015.12 1015.28 1015.44 1015.60 1015.84 1016.08 1016.28 1016.52 1016.76 1016.96 1017.12 1017.36 1017.64 1017.88 1018.12 1018.36 1018.60 1018.84 1019.00 1019.24 1019.44 1019.60 1019.80 1020.00 1020.16 1020.28 1020.44 1020.56 1020.72 1020.92 1021.12 1021.24 1021.36 1021.48 1021.56 1021.64 1021.72 1021.72 1021.76 1021.84 1021.88 1021.96 1022.00 1022.04 1022.04 1022.04 1022.04 1022.04 1022.00 1021.92 1021.84 1021.72 1021.56 1021.44 1021.32 1021.20 1021.12 1021.04 1021.00 1020.84 1020.60
1013.48 1013.72 1013.92 1014.08 1014.16 1014.28 1014.44 1014.56 1014.72 1014.84 1015.00 1015.20 1015.44 1015.68 1015.88 1016.12 1016.32 1016.56 1016.80 1017.00 1017.24 1017.44 1017.72 1018.04 1018.28 1018.52 1018.72 1018.88 1019.12 1019.28 1019.40 1019.56 1019.76 1019.92 1020.08 1020.24 1020.44 1020.56 1020.76 1020.88 1021.04 1021.16 1021.28 1021.32 1021.40 1021.44 1021.44 1021.56 1021.56 1021.68 1021.72 1021.76 1021.76 1021.72 1021.72 1021.72 1021.64 1021.56 1021.44 1021.36 1021.20 1021.08 1020.96 1020.84 1020.72 1020.68 1020.56 1020.44 1020.20
1013.16 1013.36 1013.48 1013.56 1013.72 1013.88 1014.04 1014.16 1014.36 1014.48 1014.68 1014.84 1015.08 1015.32 1015.56 1015.72 1016.00 1016.24 1016.44 1016.68 1016.84 1017.08 1017.40 1017.72 1018.00 1018.20 1018.40 1018.56 1018.80 1018.96 1019.08 1019.20 1019.40 1019.56 1019.72 1019.92 1020.12 1020.28 1020.44 1020.56 1020.72 1020.84 1020.96 1021.00 1021.08 1021.12 1021.16 1021.24 1021.28 1021.36 1021.44 1021.44 1021.44 1021.44 1021.44 1021.40 1021.32 1021.24 1021.12 1020.96 1020.80 1020.68 1020.56 1020.44 1020.28 1020.20 1020.08 1019.96 1019.80
1012.80 1012.92 1013.00 1013.12 1013.36 1013.56 1013.72 1013.88 1014.08 1014.28 1014.48 1014.68 1014.84 1015.04 1015.24 1015.44 1015.72 1015.88 1016.04 1016.24 1016.52 1016.84 1017.12 1017.36 1017.56 1017.84 1018.08 1018.28 1018.48 1018.68 1018.76 1018.88 1019.12 1019.28 1019.44 1019.60 1019.76 1019.92 1020.12 1020.28 1020.44 1020.56 1020.68 1020.72 1020.76 1020.84 1020.88 1020.96 1021.00 1021.04 1021.12 1021.12 1021.12 1021.12 1021.12 1021.04 1021.00 1020.84 1020.72 1020.60 1020.44 1020.24 1020.12 1020.00 1019.88 1019.76 1019.60 1019.48 1019.36
1012.36 1012.52 1012.72 1012.92 1013.12 1013.32 1013.52 1013.72 1013.92 1014.16 1014.36 1014.48 1014.68 1014.84 1015.00 1015.24 1015.44 1015.60 1015.80 1016.04 1016.32 1016.56 1016.80 1017.00 1017.20 1017.44 1017.64 1017.88 1018.12 1018.28 1018.48 1018.68 1018.84 1019.00 1019.12 1019.28 1019.48 1019.64 1019.84 1020.00 1020.16 1020.28 1020.36 1020.44 1020.48 1020.56 1020.60 1020.64 1020.68 1020.72 1020.80 1020.84 1020.84 1020.80 1020.76 1020.72 1020.60 1020.48 1020.32 1020.20 1020.00 1019.84 1019.72 1019.56 1019.44 1019.28 1019.12 1019.00 1018.84
1012.08 1012.32 1012.56 1012.76 1013.00 1013.16 1013.40 1013.60 1013.84 1014.04 1014.20 1014.36 1014.52 1014.68 1014.84 1015.04 1015.20 1015.44 1015.68 1015.92 1016.16 1016.28 1016.48 1016.72 1016.88 1017.08 1017.28 1017.52 1017.72 1018.00 1018.28 1018.44 1018.56 1018.72 1018.84 1019.04 1019.20 1019.44 1019.56 1019.76 1019.88 1020.00 1020.00 1020.08 1020.16 1020.28 1020.36 1020.40 1020.44 1020.44 1020.48 1020.48 1020.48 1020.44 1020.40 1020.32 1020.24 1020.12 1019.96 1019.76 1019.60 1019.44 1019.24 1019.00 1018.84 1018.72 1018.56 1018.48 1018.40
1011.96 1012.16 1012.40 1012.60 1012.84 1013.04 1013.24 1013.44 1013.64 1013.84 1014.00 1014.16 1014.36 1014.56 1014.72 1014.88 1015.12 1015.32 1015.56 1015.72 1015.88 1016.04 1016.24 1016.44 1016.60 1016.84 1017.04 1017.28 1017.52 1017.76 1018.00 1018.16 1018.36 1018.48 1018.60 1018.80 1019.00 1019.16 1019.36 1019.52 1019.60 1019.64 1019.68 1019.72 1019.84 1019.96 1020.00 1020.04 1020.08 1020.08 1020.12 1020.12 1020.08 1020.04 1019.96 1019.88 1019.80 1019.68 1019.52 1019.36 1019.16 1018.96 1018.72 1018.44 1018.28 1018.16 1018.12 1018.04 1018.00
1011.84 1012.04 1012.24 1012.44 1012.64 1012.84 1013.08 1013.28 1013.44 1013.56 1013.76 1013.96 1014.16 1014.40 1014.56 1014.76 1015.00 1015.20 1015.40 1015.56 1015.68 1015.80 1016.00 1016.16 1016.36 1016.60 1016.84 1017.12 1017.28 1017.48 1017.68 1017.84 1018.00 1018.20 1018.36 1018.56 1018.72 1018.92 1019.08 1019.20 1019.28 1019.32 1019.36 1019.44 1019.44 1019.40 1019.44 1019.44 1019.48 1019.52 1019.56 1019.56 1019.56 1019.48 1019.44 1019.32 1019.28 1019.16 1019.00 1018.84 1018.68 1018.44 1018.20 1018.00 1017.84 1017.80 1017.80 1017.76 1017.72
1011.72 1011.92 1012.12 1012.28 1012.48 1012.72 1012.88 1013.04 1013.20 1013.36 1013.56 1013.80 1014.04 1014.28 1014.44 1014.64 1014.84 1015.00 1015.16 1015.36 1015.44 1015.60 1015.80 1016.00 1016.20 1016.44 1016.64 1016.84 1017.08 1017.24 1017.40 1017.56 1017.68 1017.84 1018.04 1018.24 1018.44 1018.60 1018.76 1018.84 1018.96 1019.00 1019.04 1019.04 1019.00 1018.92 1018.88 1018.84 1018.84 1018.84 1018.88 1018.88 1018.88 1018.84 1018.76 1018.68 1018.60 1018.56 1018.44 1018.36 1018.20 1018.04 1017.84 1017.72 1017.56 1017.56 1017.56 1017.56 1017.48
1011.64 1011.80 1011.96 1012.16 1012.40 1012.56 1012.72 1012.84 1013.08 1013.28 1013.48 1013.68 1013.88 1014.08 1014.28 1014.48 1014.68 1014.84 1015.00 1015.12 1015.28 1015.44 1015.60 1015.80 1016.00 1016.16 1016.36 1016.56 1016.80 1016.96 1017.12 1017.24 1017.36 1017.56 1017.72 1017.88 1018.12 1018.28 1018.40 1018.48 1018.56 1018.64 1018.68 1018.68 1018.60 1018.56 1018.48 1018.44 1018.40 1018.32 1018.28 1018.32 1018.28 1018.24 1018.16 1018.08 1018.00 1018.00 1018.00 1017.92 1017.80 1017.72 1017.56 1017.44 1017.40 1017.40 1017.36 1017.32 1017.28
1011.44 1011.60 1011.84 1012.08 1012.28 1012.40 1012.52 1012.72 1012.96 1013.12 1013.28 1013.48 1013.68 1013.84 1014.08 1014.32 1014.52 1014.68 1014.76 1014.88 1015.08 1015.28 1015.44 1015.60 1015.76 1015.92 1016.08 1016.28 1016.44 1016.56 1016.72 1016.84 1017.00 1017.24 1017.44 1017.56 1017.72 1017.84 1018.00 1018.08 1018.16 1018.24 1018.24 1018.24 1018.24 1018.16 1018.12 1018.04 1018.00 1017.92 1017.84 1017.84 1017.84 1017.80 1017.76 1017.72 1017.68 1017.60 1017.56 1017.52 1017.44 1017.36 1017.28 1017.24 1017.24 1017.24 1017.20 1017.12 1017.12
1011.20 1011.40 1011.60 1011.84 1011.96 1012.08 1012.28 1012.52 1012.68 1012.84 1013.00 1013.24 1013.44 1013.72 1013.92 1014.16 1014.28 1014.40 1014.52 1014.68 1014.84 1015.00 1015.16 1015.32 1015.52 1015.68 1015.84 1015.96 1016.04 1016.20 1016.40 1016.56 1016.72 1016.92 1017.12 1017.28 1017.44 1017.56 1017.64 1017.72 1017.84 1017.84 1017.84 1017.84 1017.80 1017.76 1017.72 1017.68 1017.60 1017.56 1017.48 1017.44 1017.44 1017.44 1017.44 1017.40 1017.32 1017.28 1017.20 1017.12 1017.08 1017.04 1017.04 1017.04 1017.04 1017.00 1016.96 1016.92 1016.84
1010.92 1011.12 1011.32 1011.44 1011.60 1011.76 1011.96 1012.12 1012.28 1012.48 1012.72 1013.00 1013.28 1013.52 1013.72 1013.84 1014.00 1014.12 1014.24 1014.36 1014.52 1014.60 1014.72 1014.88 1015.16 1015.36 1015.44 1015.52 1015.68 1015.84 1016.04 1016.20 1016.40 1016.56 1016.76 1016.96 1017.08 1017.16 1017.28 1017.36 1017.48 1017.56 1017.56 1017.48 1017.48 1017.44 1017.40 1017.32 1017.28 1017.20 1017.12 1017.08 1017.08 1017.12 1017.12 1017.00 1017.00 1016.92 1016.84 1016.80 1016.80 1016.84 1016.84 1016.80 1016.84 1016.80 1016.72 1016.68 1016.64
1010.76 1010.92 1011.04 1011.16 1011.32 1011.48 1011.60 1011.76 1012.00 1012.28 1012.52 1012.76 1013.00 1013.20 1013.40 1013.56 1013.68 1013.76 1013.84 1014.00 1014.12 1014.24 1014.40 1014.60 1014.80 1014.96 1015.04 1015.12 1015.32 1015.48 1015.68 1015.84 1016.04 1016.24 1016.44 1016.56 1016.68 1016.76 1016.88 1017.00 1017.16 1017.24 1017.24 1017.20 1017.16 1017.12 1017.08 1017.00 1016.96 1016.84 1016.80 1016.76 1016.76 1016.76 1016.72 1016.72 1016.64 1016.56 1016.56 1016.52 1016.56 1016.56 1016.56 1016.56 1016.56 1016.52 1016.48 1016.44 1016.40
1010.56 1010.72 1010.84 1011.00 1011.08 1011.20 1011.36 1011.56 1011.80 1012.00 1012.24 1012.48 1012.68 1012.84 1013.00 1013.12 1013.20 1013.32 1013.48 1013.68 1013.84 1014.00 1014.20 1014.36 1014.44 1014.56 1014.72 1014.88 1015.04 1015.20 1015.32 1015.48 1015.68 1015.84 1016.00 1016.16 1016.32 1016.44 1016.56 1016.76 1016.84 1016.92 1017.00 1016.96 1016.88 1016.84 1016.76 1016.72 1016.64 1016.56 1016.52 1016.44 1016.44 1016.44 1016.40 1016.36 1016.32 1016.28 1016.28 1016.28 1016.32 1016.32 1016.32 1016.28 1016.24 1016.20 1016.20 1016.20 1016.20
1010.32 1010.48 1010.60 1010.72 1010.80 1010.92 1011.12 1011.36 1011.56 1011.72 1011.96 1012.16 1012.28 1012.44 1012.56 1012.72 1012.88 1013.04 1013.24 1013.36 1013.52 1013.68 1013.84 1013.92 1014.04 1014.16 1014.32 1014.48 1014.68 1014.84 1015.00 1015.12 1015.28 1015.44 1015.60 1015.80 1015.96 1016.16 1016.32 1016.44 1016.52 1016.56 1016.60 1016.56 1016.56 1016.52 1016.44 1016.40 1016.32 1016.28 1016.16 1016.12 1016.08 1016.12 1016.12 1016.04 1016.04 1016.08 1016.12 1016.12 1016.08 1016.04 1016.04 1016.00 1016.00 1015.96 1015.92 1015.96 1015.96
1010.12 1010.24 1010.32 1010.40 1010.52 1010.68 1010.84 1011.08 1011.28 1011.44 1011.60 1011.76 1011.88 1012.00 1012.16 1012.32 1012.56 1012.72 1012.84 1013.00 1013.12 1013.24 1013.36 1013.44 1013.60 1013.72 1013.84 1014.00 1014.24 1014.44 1014.60 1014.72 1014.92 1015.12 1015.32 1015.48 1015.68 1015.88 1016.04 1016.12 1016.16 1016.20 1016.24 1016.24 1016.20 1016.16 1016.12 1016.04 1016.00 1015.96 1015.88 1015.84 1015.80 1015.84 1015.84 1015.84 1015.84 1015.84 1015.84 1015.84 1015.84 1015.84 1015.80 1015.76 1015.76 1015.72 1015.72 1015.76 1015.76
1009.84 1009.96 1010.00 1010.08 1010.20 1010.36 1010.56 1010.72 1010.88 1011.08 1011.24 1011.28 1011.36 1011.44 1011.60 1011.80 1011.96 1012.12 1012.28 1012.44 1012.60 1012.84 1013.00 1013.12 1013.24 1013.40 1013.56 1013.72 1013.88 1014.08 1014.28 1014.40 1014.60 1014.84 1015.00 1015.20 1015.44 1015.60 1015.72 1015.72 1015.80 1015.84 1015.88 1015.88 1015.84 1015.80 1015.76 1015.72 1015.72 1015.68 1015.60 1015.56 1015.60 1015.64 1015.64 1015.64 1015.64 1015.64 1015.64 1015.60 1015.60 1015.56 1015.56 1015.56 1015.52 1015.52 1015.52 1015.56 1015.52
1009.56 1009.64 1009.68 1009.76 1009.84 1010.00 1010.16 1010.32 1010.48 1010.60 1010.72 1010.72 1010.80 1010.88 1011.00 1011.12 1011.28 1011.44 1011.68 1011.96 1012.20 1012.44 1012.60 1012.76 1012.96 1013.16 1013.36 1013.52 1013.64 1013.76 1013.92 1014.04 1014.24 1014.44 1014.72 1014.92 1015.12 1015.28 1015.40 1015.44 1015.48 1015.52 1015.56 1015.56 1015.56 1015.52 1015.48 1015.44 1015.44 1015.40 1015.36 1015.40 1015.44 1015.44 1015.44 1015.44 1015.44 1015.44 1015.44 1015.40 1015.32 1015.28 1015.28 1015.28 1015.28 1015.28 1015.28 1015.28 1015.24
1009.28 1009.32 1009.36 1009.44 1009.52 1009.60 1009.72 1009.84 1009.96 1010.04 1010.08 1010.04 1010.12 1010.24 1010.36 1010.52 1010.72 1010.96 1011.20 1011.48 1011.76 1011.96 1012.12 1012.32 1012.56 1012.72 1012.88 1013.00 1013.20 1013.32 1013.48 1013.68 1013.84 1014.16 1014.36 1014.56 1014.76 1014.92 1015.04 1015.12 1015.16 1015.24 1015.28 1015.28 1015.28 1015.24 1015.16 1015.12 1015.12 1015.12 1015.12 1015.16 1015.16 1015.16 1015.16 1015.16 1015.16 1015.16 1015.16 1015.12 1015.12 1015.08 1015.04 1015.04 1015.04 1015.00 1015.00 1014.96 1014.88
1008.92 1009.00 1009.00 1009.04 1009.08 1009.12 1009.24 1009.32 1009.40 1009.40 1009.36 1009.36 1009.44 1009.56 1009.76 1009.96 1010.16 1010.44 1010.68 1010.88 1011.12 1011.36 1011.56 1011.84 1012.04 1012.20 1012.36 1012.56 1012.72 1012.96 1013.12 1013.28 1013.52 1013.76 1014.00 1014.20 1014.36 1014.56 1014.72 1014.80 1014.84 1014.92 1015.00 1015.04 1015.00 1015.00 1014.96 1014.92 1014.88 1014.88 1014.88 1014.96 1014.96 1014.96 1014.96 1014.96 1014.92 1014.88 1014.88 1014.84 1014.84 1014.84 1014.84 1014.84 1014.84 1014.80 1014.76 1014.72 1014.56
1008.44 1008.52 1008.56 1008.60 1008.60 1008.68 1008.76 1008.84 1008.80 1008.76 1008.76 1008.84 1009.00 1009.20 1009.40 1009.56 1009.72 1009.92 1010.12 1010.28 1010.52 1010.76 1011.04 1011.32 1011.52 1011.72 1011.92 1012.20 1012.44 1012.72 1012.88 1013.08 1013.24 1013.44 1013.68 1013.84 1014.00 1014.16 1014.36 1014.48 1014.52 1014.60 1014.72 1014.76 1014.72 1014.68 1014.68 1014.64 1014.64 1014.60 1014.60 1014.68 1014.68 1014.72 1014.72 1014.72 1014.68 1014.64 1014.64 1014.60 1014.56 1014.60 1014.60 1014.64 1014.60 1014.56 1014.56 1014.48 1014.28
1007.60 1007.84 1008.00 1008.04 1008.08 1008.16 1008.24 1008.28 1008.28 1008.28 1008.40 1008.60 1008.80 1008.96 1009.12 1009.32 1009.44 1009.64 1009.84 1010.04 1010.24 1010.44 1010.64 1010.84 1011.08 1011.36 1011.64 1011.92 1012.20 1012.44 1012.64 1012.84 1013.00 1013.16 1013.32 1013.48 1013.68 1013.84 1014.00 1014.12 1014.20 1014.28 1014.32 1014.44 1014.40 1014.40 1014.36 1014.36 1014.32 1014.32 1014.36 1014.40 1014.44 1014.44 1014.48 1014.48 1014.44 1014.44 1014.40 1014.36 1014.40 1014.40 1014.44 1014.40 1014.36 1014.36 1014.32 1014.28 1014.08
1006.56 1006.92 1007.16 1007.28 1007.44 1007.56 1007.72 1007.84 1007.88 1008.04 1008.28 1008.48 1008.64 1008.80 1009.00 1009.20 1009.44 1009.68 1009.84 1010.00 1010.12 1010.28 1010.44 1010.64 1010.84 1011.12 1011.40 1011.60 1011.84 1012.12 1012.32 1012.56 1012.72 1012.88 1013.04 1013.20 1013.44 1013.56 1013.64 1013.72 1013.84 1013.92 1014.00 1014.08 1014.12 1014.08 1014.08 1014.08 1014.04 1014.04 1014.08 1014.16 1014.20 1014.24 1014.24 1014.24 1014.20 1014.16 1014.12 1014.12 1014.16 1014.16 1014.16 1014.16 1014.12 1014.08 1014.04 1014.00 1013.96
Wind_Speed
11 10 9 9 9 8 8 7 7 7 7 7 7 7 7 8 8 7 7 7 7 7 6 6 6 6 6 7 9 9 8 8 8 8 9 9 8 7 7 7 7 7 7 6 6 5 5 5 4 4 4 4 4 4 5 4 5 5 5 6 6 6 6 8 8 8 8 8 7
13 12 11 11 10 9 7 7 7 7 7 6 7 7 7 7 7 7 7 7 7 6 6 5 5 6 7 9 9 9 9 8 9 9 8 8 8 7 7 7 7 7 7 7 6 5 5 5 4 4 4 4 4 5 5 5 5 5 6 7 6 6 6 7 8 8 8 8 7
13 12 11 11 10 9 8 8 8 8 8 7 6 7 7 7 7 7 7 7 6 6 5 5 5 7 8 9 8 8 8 8 9 8 8 7 7 7 7 7 7 7 7 7 6 6 5 5 5 4 4 4 4 5 5 5 5 5 6 7 6 5 5 6 7 7 6 6 8
14 13 13 13 13 13 11 10 10 10 9 8 6 6 7 6 6 6 6 6 5 5 5 6 6 7 8 8 8 8 8 9 9 8 8 7 7 7 8 7 7 7 7 7 7 6 6 6 5 4 4 4 5 5 5 4 4 5 5 5 5 5 6 6 6 6 6 7 8
14 14 14 14 15 14 13 11 11 11 9 7 7 6 6 6 5 5 5 5 6 7 7 7 6 7 7 8 9 9 8 9 9 9 8 7 7 7 7 7 8 8 7 7 7 7 7 6 4 4 4 4 4 5 5 5 5 5 5 5 5 5 6 6 5 5 6 6 6
16 15 15 14 15 14 12 10 11 10 9 7 8 8 8 7 6 7 7 8 8 8 8 8 7 7 8 8 9 9 8 8 8 8 7 8 7 7 7 8 8 8 7 7 7 7 7 6 4 4 4 4 5 5 6 6 6 6 6 5 6 5 5 6 5 5 6 7 7
16 16 15 15 14 13 12 10 10 9 8 8 10 11 11 9 9 10 10 9 7 7 8 8 8 8 8 8 8 8 8 8 7 7 8 7 7 7 8 8 8 8 7 7 7 7 6 5 4 4 5 5 5 5 6 6 6 6 6 7 6 5 5 6 5 5 7 9 10
15 15 15 15 14 14 13 12 10 9 9 9 11 12 13 12 12 11 10 8 7 7 8 8 9 9 9 9 9 9 9 8 8 8 8 7 8 8 8 8 7 8 7 7 7 6 6 5 4 4 4 4 4 5 5 6 6 7 8 8 7 6 5 5 5 6 7 9 11
13 14 14 14 14 14 13 12 12 11 11 11 12 13 13 13 12 12 10 9 8 8 8 8 9 9 10 10 10 9 9 9 8 8 8 8 8 8 8 7 7 7 7 7 7 7 7 5 5 5 5 4 5 5 5 6 7 8 8 8 7 7 6 6 6 7 8 9 11
14 14 14 13 14 13 13 12 12 12 12 12 13 13 13 13 12 11 10 9 9 8 8 8 9 10 10 10 10 10 9 8 8 8 8 8 9 8 8 7 8 7 7 7 7 7 6 5 5 5 5 5 6 6 6 6 7 8 8 7 8 8 8 8 8 8 9 10 12
15 14 14 13 14 13 13 12 11 11 12 12 12 12 12 13 12 11 10 8 8 9 10 9 10 10 10 10 10 10 9 8 8 8 8 8 9 9 8 8 8 8 8 7 6 6 6 5 6 6 6 6 6 7 7 7 8 9 9 8 9 10 10 10 10 9 9 10 12
14 14 13 13 13 13 12 12 11 11 11 12 12 11 11 11 12 11 10 9 10 10 10 10 10 11 11 9 9 9 9 8 8 8 8 9 9 8 8 8 8 8 8 8 6 6 5 6 6 7 7 7 6 6 7 8 8 9 10 10 10 10 11 12 11 10 9 9 11
14 13 13 12 12 13 13 13 11 11 11 12 12 11 11 11 11 11 11 11 11 10 10 10 10 11 10 9 9 9 9 9 9 9 8 8 8 8 8 8 8 8 8 7 6 6 6 6 7 7 8 8 7 7 7 8 9 9 10 11 11 11 12 12 12 11 10 10 11
13 13 13 12 13 13 13 13 11 11 11 13 12 12 11 10 11 11 11 12 11 10 9 9 10 10 10 10 9 9 9 9 9 9 9 9 8 8 8 8 8 8 8 7 7 7 7 7 7 8 8 9 9 8 8 8 9 9 10 11 11 12 12 13 12 11 11 11 12
13 13 13 13 13 13 13 13 11 11 12 13 12 11 10 10 10 11 11 11 11 10 9 9 9 9 10 10 10 10 10 9 9 9 9 9 8 8 8 8 8 8 8 7 7 7 8 8 8 8 8 9 9 9 9 9 9 10 10 11 12 12 13 13 12 12 11 12 13
14 14 13 13 14 14 13 13 11 11 11 12 12 11 10 10 10 11 11 11 10 9 9 10 9 9 9 10 10 10 10 9 9 9 9 9 9 9 9 9 9 9 8 8 8 7 8 8 8 8 8 9 9 10 10 10 10 10 11 11 12 13 13 13 13 12 12 12 14
14 14 14 14 15 15 14 14 12 11 12 12 12 12 11 10 10 10 12 12 10 10 10 11 10 9 9 10 10 10 9 9 9 9 9 9 9 9 9 9 9 9 9 8 8 8 8 8 8 8 8 9 9 10 10 10 10 11 11 12 12 13 13 14 13 13 13 13 15
15 15 15 15 16 16 16 15 14 13 13 13 13 13 12 11 11 11 12 12 12 12 12 12 10 10 10 10 10 9 9 9 10 10 10 10 10 10 10 10 9 9 9 9 9 9 8 8 8 8 8 8 9 9 10 10 10 11 12 12 13 13 13 13 13 13 13 14 15
15 15 15 16 17 17 17 17 16 15 14 14 13 13 12 12 12 12 12 12 13 13 13 12 11 10 10 11 10 10 10 10 10 10 10 10 9 9 9 9 9 9 9 9 9 8 8 8 8 8 8 8 9 9 9 10 10 11 12 13 13 13 13 13 13 13 13 14 15
16 16 16 17 17 17 17 17 16 15 14 13 13 13 13 13 13 13 13 13 13 13 13 13 12 11 11 11 11 11 10 9 10 10 10 10 9 9 10 9 9 9 9 8 8 8 8 8 8 8 8 9 9 10 10 10 11 12 12 12 13 13 13 13 13 14 14 15 15
16 16 17 17 16 16 16 16 15 14 13 12 13 13 13 13 13 14 14 14 13 13 13 13 13 13 12 12 12 11 10 9 9 10 10 9 10 10 10 9 9 8 8 8 8 8 8 8 8 8 8 9 10 10 10 10 11 12 12 12 12 13 13 13 14 14 15 15 15
16 16 15 15 15 15 15 14 13 13 13 12 13 13 13 13 13 14 13 13 12 13 13 13 13 13 13 13 12 12 10 9 9 9 9 9 9 9 9 8 8 8 8 8 8 8 8 8 8 8 9 9 10 10 11 11 12 12 13 13 13 14 14 14 14 15 15 15 14
15 14 13 13 13 14 14 13 12 12 12 12 12 12 12 13 13 12 12 11 12 12 13 12 12 13 13 12 12 11 10 9 9 9 9 8 8 8 8 8 8 8 9 8 8 7 7 7 8 8 9 9 10 11 12 12 12 12 13 14 14 14 15 15 15 14 14 14 13
13 12 11 10 12 13 13 13 12 13 13 13 12 12 12 12 12 12 11 12 12 12 12 11 11 11 12 11 11 11 11 10 10 9 9 9 8 8 8 7 8 8 8 7 8 8 8 7 7 8 8 9 10 11 11 12 12 12 13 14 14 14 15 14 13 12 11 11 10
12 12 11 11 11 12 12 12 13 13 13 13 12 12 12 12 12 11 12 12 12 12 12 11 10 10 10 10 10 10 11 11 11 10 10 9 9 8 8 7 7 7 7 7 11 14 14 13 10 9 8 9 10 10 11 12 13 13 13 13 14 14 14 13 11 9 8 9 8
11 11 11 11 12 12 12 13 13 13 13 12 12 12 12 12 11 11 12 12 12 12 12 11 10 10 10 10 10 10 10 10 10 10 10 9 9 9 8 7 7 6 7 9 14 17 18 18 17 14 11 9 9 10 11 11 12 12 12 12 13 13 13 11 9 7 7 8 8
11 11 12 11 11 12 13 13 12 12 12 12 12 12 12 11 11 11 12 12 12 12 11 10 10 11 11 9 10 11 11 10 10 10 10 10 9 9 9 8 7 7 7 12 15 18 19 20 20 19 16 11 10 10 10 9 9 10 10 11 11 12 11 10 8 8 8 8 8
11 11 11 11 12 12 13 12 12 12 12 12 12 12 12 11 11 12 12 12 12 11 10 9 9 9 9 8 10 11 12 11 10 10 9 9 10 10 10 8 8 8 10 14 17 18 19 20 20 20 19 15 11 9 9 9 9 9 9 9 10 10 9 8 7 7 8 8 8
12 12 12 12 13 13 13 12 13 13 13 13 12 12 12 12 12 13 13 12 12 11 10 9 8 8 8 9 10 11 11 11 10 9 9 9 9 10 10 9 9 10 13 17 18 19 20 20 20 20 20 18 12 8 7 7 8 8 8 8 8 8 7 7 6 7 7 8 8
12 12 12 13 13 13 13 14 14 13 13 11 12 12 12 13 13 13 13 13 13 13 11 9 9 9 10 11 11 10 10 10 10 9 9 10 10 10 10 10 9 10 13 17 19 19 20 20 20 20 20 20 15 11 8 7 7 7 7 7 7 7 7 7 7 8 8 8 8
11 12 12 13 13 14 14 13 13 12 12 11 12 12 13 13 14 14 14 14 13 12 11 10 11 12 12 11 11 10 10 10 10 9 10 10 11 11 11 10 10 11 13 17 18 19 20 20 20 20 20 20 16 11 8 7 7 7 6 6 7 7 7 7 8 8 8 8 8
11 12 13 13 14 14 13 12 12 12 12 12 13 13 14 15 15 14 14 13 13 12 12 12 13 13 12 12 11 11 11 10 10 10 10 10 10 10 10 10 10 11 13 17 18 19 19 20 20 20 20 20 16 12 9 8 7 7 6 7 7 8 8 7 7 8 9 8 8
12 12 13 13 14 13 12 12 12 12 13 13 14 14 15 15 14 13 13 12 12 13 13 14 14 14 13 13 12 12 11 11 11 11 11 11 10 10 10 10 9 11 14 17 18 19 19 20 20 20 20 20 15 12 9 8 6 5 5 6 7 7 8 9 8 8 8 8 8
12 13 13 14 14 13 12 12 12 13 13 14 14 15 15 14 14 14 13 13 13 13 13 13 14 14 13 13 13 12 12 11 11 11 11 10 10 10 10 9 8 10 14 17 18 19 19 19 19 19 19 19 14 10 7 7 6 5 5 6 7 7 8 9 9 8 8 8 8
13 13 14 14 13 13 13 13 13 14 14 15 16 16 16 15 15 15 15 14 13 13 12 12 12 12 11 11 11 12 12 11 11 10 10 10 9 10 10 11 9 12 15 17 18 18 18 19 19 19 18 16 11 8 6 6 6 6 6 7 7 8 8 8 8 8 7 7 8
13 14 15 14 14 14 14 14 14 15 16 17 17 17 17 17 16 15 15 15 14 13 13 12 12 11 11 10 10 11 12 12 11 10 10 10 10 10 11 11 11 12 15 17 18 18 18 18 18 18 17 13 8 6 6 6 6 6 7 7 8 8 9 8 8 7 7 7 8
14 15 15 15 15 15 15 15 16 17 18 19 18 18 18 17 16 15 14 15 14 14 14 13 13 13 13 13 11 12 12 12 11 11 10 11 11 11 11 11 11 12 14 17 17 18 18 18 18 17 15 11 7 6 6 5 5 6 6 7 8 8 8 8 7 7 7 7 8
15 15 16 16 16 16 16 16 17 18 19 20 19 18 17 17 15 15 15 15 15 15 14 14 14 14 14 14 13 12 11 11 11 11 11 11 11 11 11 11 11 11 13 15 16 17 17 18 18 17 14 10 7 6 6 5 5 5 6 6 7 7 7 6 6 6 7 8 11
16 16 17 17 17 17 17 17 19 19 20 19 18 17 16 15 14 14 15 15 15 15 15 14 15 14 14 14 12 11 11 10 11 11 11 11 11 12 12 12 11 11 12 14 16 17 17 17 17 17 15 11 8 6 5 5 5 6 6 6 6 6 6 5 5 5 6 8 13
17 17 18 18 18 18 18 19 19 19 18 17 16 16 15 15 14 13 13 13 13 14 14 14 15 14 13 13 12 11 10 10 10 11 12 11 12 13 14 13 11 11 12 14 15 16 17 17 17 17 15 10 7 5 5 5 5 6 6 6 6 5 5 5 5 5 6 7 10
18 18 19 19 19 19 18 19 18 17 15 14 15 14 13 13 12 12 12 11 12 12 12 12 13 13 13 13 11 11 11 11 11 11 12 12 12 13 13 13 11 10 10 12 14 16 16 16 16 16 15 10 7 5 5 5 6 7 7 6 6 5 5 5 5 5 5 6 6
Wind_Direction
197 197 196 195 194 194 196 199 200 196 191 188 190 191 192 191 196 197 196 194 198 200 200 196 194 188 180 175 179 183 188 191 193 198 202 204 205 208 211 213 214 215 216 219 218 218 218 216 218 226 235 237 238 238 238 236 233 233 235 237 243 244 243 243 246 245 242 239 240
198 197 197 197 197 196 196 197 199 198 194 191 191 191 192 192 195 196 195 196 199 197 194 191 185 179 175 177 179 182 186 190 192 198 203 206 207 209 210 214 215 215 216 217 216 217 218 213 214 222 232 236 237 238 239 236 229 231 236 238 242 244 245 246 246 245 242 240 241
197 196 196 197 196 195 194 195 197 196 195 194 192 190 191 194 195 195 195 196 194 190 186 185 180 177 175 177 179 182 185 188 190 195 201 207 209 210 212 215 217 218 218 218 215 216 217 211 213 221 231 235 233 237 240 238 228 230 236 238 241 244 246 249 248 246 244 245 244
196 195 196 198 197 196 195 194 194 194 194 191 188 188 190 194 195 195 191 186 184 186 188 185 179 177 177 176 180 184 187 189 189 193 200 207 209 211 213 215 217 219 220 218 216 217 217 211 215 223 231 234 235 239 243 242 234 235 239 241 242 242 244 249 248 247 247 249 248
198 198 198 199 199 199 197 195 193 192 191 186 183 186 190 192 193 189 185 182 189 192 191 180 176 176 178 178 181 185 189 193 194 195 199 204 208 211 212 213 216 218 219 217 216 216 216 210 217 225 231 232 236 241 243 241 240 242 245 248 246 244 244 247 248 248 249 251 251
199 199 200 200 200 200 199 196 193 190 187 181 182 186 189 190 190 190 191 193 194 190 183 177 178 178 178 178 182 185 189 194 196 196 197 202 207 209 211 214 216 217 218 217 216 215 213 207 218 227 231 231 237 239 238 234 237 241 246 249 247 245 244 245 247 248 249 251 253
199 199 199 200 199 199 198 196 191 187 182 180 185 189 191 190 190 192 194 194 187 182 180 182 183 182 180 180 184 188 191 193 196 197 197 201 205 208 211 215 216 217 217 216 215 214 211 204 216 229 235 236 240 237 231 225 230 237 244 248 247 245 243 243 245 247 250 251 253
198 199 199 199 198 198 197 194 188 184 183 187 191 193 193 190 190 191 191 188 185 183 184 186 185 183 182 182 186 189 191 192 195 197 199 202 206 209 212 214 216 218 218 216 214 213 211 207 216 225 232 236 244 242 235 225 227 235 243 248 250 249 247 246 245 247 250 252 254
199 199 199 198 198 198 196 193 188 187 188 193 195 194 193 191 190 188 188 189 188 186 184 186 185 183 182 184 187 190 191 192 195 197 199 201 204 209 212 214 216 219 219 216 213 212 211 212 220 225 229 232 239 243 240 231 232 237 244 250 254 254 252 250 248 248 249 252 255
199 198 197 197 198 197 195 193 191 191 192 195 195 194 193 192 190 189 190 191 186 184 185 187 183 182 185 188 191 191 192 192 193 195 198 201 204 208 210 213 215 218 219 216 212 209 209 213 222 228 230 232 237 243 244 240 240 243 247 253 255 257 257 254 251 250 251 253 256
199 196 195 196 196 195 193 193 194 195 196 198 196 194 193 194 192 191 190 186 182 185 189 187 182 183 187 192 193 193 192 191 192 194 197 202 205 207 209 212 213 215 216 215 210 206 206 213 223 229 232 235 237 241 245 244 244 246 249 254 256 258 260 259 255 253 253 254 256
200 197 195 195 193 191 191 193 195 197 198 199 196 194 194 196 193 190 186 182 186 189 191 187 184 186 189 193 194 193 192 191 192 194 197 202 205 207 210 212 213 215 215 215 209 206 208 216 223 230 235 238 238 241 242 242 244 247 250 253 255 257 259 260 258 256 254 254 257
199 196 194 193 189 189 191 195 197 197 199 200 198 196 195 197 192 187 184 185 190 191 190 187 187 189 191 193 192 191 191 191 192 195 198 202 204 206 209 213 214 216 216 216 210 209 212 219 224 230 236 240 241 242 241 241 243 246 250 254 255 256 258 260 260 259 258 257 259
198 196 193 191 188 189 192 196 198 199 199 201 200 197 195 195 191 188 187 189 192 191 188 186 189 192 194 193 190 189 189 190 191 195 199 203 203 205 209 214 214 215 216 217 212 211 215 221 225 230 236 241 244 244 243 242 244 246 250 254 256 258 259 261 262 262 261 260 261
198 196 193 189 189 191 194 197 199 199 199 201 200 197 194 193 191 190 189 191 192 190 186 185 191 194 195 192 190 188 188 189 191 195 199 204 204 206 209 214 214 215 215 217 215 214 216 221 226 230 236 242 245 247 246 245 246 247 249 252 255 257 260 262 262 263 262 261 263
199 197 194 190 191 194 196 198 199 199 199 201 198 196 193 192 191 190 190 192 191 189 187 188 191 192 192 191 190 188 188 190 192 195 199 203 204 207 210 213 215 215 216 217 219 219 219 221 225 229 234 240 245 248 249 248 249 250 251 252 254 256 258 260 261 262 261 261 262
200 198 195 193 195 197 198 199 199 199 199 199 196 195 193 191 189 189 191 191 189 188 189 191 190 188 188 191 189 188 189 192 195 198 200 203 205 207 210 213 215 216 216 217 221 223 225 225 226 228 232 238 243 247 249 251 252 253 253 254 255 256 257 259 260 260 260 261 262
201 199 196 196 198 199 200 200 200 200 199 197 195 194 193 189 188 189 191 191 188 188 190 192 190 188 187 189 189 189 190 194 198 200 202 203 204 206 210 214 215 216 216 218 221 225 227 228 228 230 233 237 242 246 249 251 253 254 255 256 256 256 256 257 257 257 258 259 260
202 200 199 200 201 202 202 202 202 201 200 197 195 193 192 190 187 188 189 191 190 189 189 190 189 189 189 189 189 191 193 195 199 201 203 203 204 207 210 213 215 216 217 219 222 225 228 230 231 233 236 240 244 247 249 251 254 255 256 257 257 257 256 255 255 254 255 256 258
203 202 202 202 203 203 203 203 203 202 200 197 195 193 192 190 188 188 189 191 190 189 188 188 189 190 191 190 190 193 196 197 198 200 202 203 204 207 210 212 215 217 218 219 223 226 229 232 233 235 238 242 246 249 251 253 255 256 257 258 257 256 256 255 254 253 253 254 256
205 205 204 204 203 204 204 204 204 203 201 199 196 193 192 190 189 190 190 190 187 186 187 189 190 190 191 191 192 195 198 198 198 199 201 202 205 207 210 210 214 217 219 221 224 226 229 232 235 237 239 242 246 249 251 253 255 257 257 258 257 257 256 255 255 254 254 253 253
207 206 206 205 204 205 205 205 204 203 202 200 197 194 192 190 191 191 190 187 184 185 188 191 192 192 191 191 192 194 197 198 199 200 201 202 205 208 209 209 213 217 221 222 224 226 229 233 236 237 240 243 246 248 250 252 254 256 257 258 258 258 257 256 255 254 253 252 251
208 207 206 205 205 205 204 204 203 203 202 202 199 196 193 192 192 190 188 185 185 187 189 192 193 193 192 191 191 192 194 197 200 201 202 201 205 206 207 208 212 217 221 223 223 224 228 234 238 239 240 242 245 247 248 249 251 254 256 258 259 259 258 257 255 253 251 249 248
207 205 204 203 203 203 203 202 202 202 203 202 199 196 194 193 190 188 186 186 187 189 190 192 193 193 192 191 190 191 192 196 199 201 202 202 204 205 206 208 214 218 222 224 223 223 225 230 234 235 236 236 239 242 243 244 245 248 251 255 257 259 260 260 256 251 247 244 245
206 204 203 202 201 201 202 201 202 202 202 201 198 195 194 192 189 187 187 188 190 190 191 192 191 190 190 190 191 192 193 196 198 199 201 202 203 205 207 211 217 221 224 227 233 235 236 236 235 233 230 229 231 235 237 238 239 241 245 249 254 259 263 263 257 250 244 243 244
204 204 203 202 201 201 202 203 203 203 202 200 197 195 194 193 190 188 188 190 192 192 191 190 189 188 188 189 190 193 195 198 199 199 200 202 204 206 209 214 219 221 226 231 237 241 243 245 246 244 240 233 232 235 238 239 238 239 241 247 254 260 264 264 259 252 249 250 249
204 204 205 203 201 202 204 204 203 202 201 198 197 196 195 192 190 190 191 192 192 191 190 190 190 189 189 188 191 194 197 200 200 200 201 202 205 208 212 217 219 221 226 232 239 243 247 250 252 252 251 248 245 244 245 248 245 244 245 250 256 259 261 259 256 255 256 257 256
204 205 204 202 203 205 205 203 202 202 201 199 197 195 193 190 191 192 193 193 191 190 190 191 191 190 189 189 193 195 197 198 198 199 200 203 207 211 215 219 221 224 229 234 240 244 248 252 254 256 257 257 254 252 253 255 253 252 251 253 255 256 254 250 250 253 255 258 260
204 203 202 202 205 205 204 201 202 202 201 198 196 194 192 191 193 194 194 193 190 190 190 190 189 189 191 194 196 196 196 197 196 197 198 203 209 214 218 221 223 229 234 237 242 246 250 253 256 258 260 261 260 258 256 255 253 252 251 251 250 248 246 243 245 247 251 255 258
203 202 202 204 205 205 203 202 202 200 198 196 194 193 193 194 195 196 195 194 193 192 191 186 186 190 194 197 195 194 194 196 195 195 197 201 209 215 220 222 224 229 235 239 243 247 251 255 257 260 262 263 264 263 260 254 252 251 250 250 246 242 239 239 241 244 247 251 256
203 203 204 206 206 206 205 203 200 198 195 193 193 193 195 196 198 198 198 196 195 194 191 186 188 192 195 195 194 194 194 193 193 194 197 203 210 216 220 222 224 229 235 239 244 248 252 256 258 261 263 265 265 264 260 256 254 252 250 248 243 239 237 239 241 243 245 249 254
204 204 206 207 209 208 206 201 198 196 194 193 194 195 197 199 200 200 199 197 195 193 191 189 191 193 195 194 194 195 194 192 192 194 197 201 208 215 220 224 225 229 235 239 243 248 252 256 258 261 263 265 266 265 262 259 257 254 251 247 243 239 239 240 242 243 245 247 252
205 206 207 209 210 208 204 199 196 194 194 195 196 198 199 201 201 200 199 198 196 194 192 191 192 192 193 193 194 194 194 194 194 197 200 202 207 213 221 226 229 231 234 238 243 247 251 255 258 261 263 265 266 266 264 262 260 256 251 247 244 243 242 243 244 244 245 248 252
206 207 209 210 209 207 203 198 195 194 195 197 199 200 200 200 199 199 199 198 197 195 195 194 193 193 193 192 192 193 195 196 195 197 199 201 204 211 220 226 229 232 234 238 243 247 251 255 258 261 264 266 268 268 265 263 262 257 253 250 249 248 247 245 244 244 245 249 253
206 208 210 211 209 206 202 198 196 195 196 199 201 201 200 199 199 199 198 196 195 195 196 196 195 194 194 193 192 193 194 196 194 195 196 198 202 211 221 228 231 233 235 239 243 247 251 255 258 261 264 267 269 268 266 263 262 259 256 256 256 254 252 249 246 244 245 247 251
206 208 210 211 209 205 202 198 196 197 199 201 202 201 201 200 199 198 195 193 193 193 194 194 193 193 193 193 194 195 196 195 193 192 193 195 200 210 220 229 232 234 236 239 243 247 251 255 258 261 264 267 267 265 263 261 261 260 259 259 260 259 256 253 250 248 248 248 249
208 209 210 210 209 206 203 199 198 199 202 204 203 202 200 200 198 196 193 190 191 192 192 191 191 192 193 192 194 195 195 192 190 191 194 197 201 209 219 229 232 234 236 239 242 246 250 254 258 261 264 266 264 261 259 258 259 258 258 259 260 258 257 255 252 252 252 252 252
209 209 210 210 210 208 205 202 202 203 205 206 204 203 200 198 196 194 191 189 190 191 191 190 191 192 193 192 193 193 193 190 189 191 195 200 203 209 217 227 232 233 234 236 241 245 249 253 256 259 261 262 260 258 258 258 257 257 256 256 257 255 253 251 252 254 255 255 260
209 209 209 210 211 209 207 205 206 207 207 206 205 203 201 198 196 194 192 191 190 190 189 189 191 192 192 190 190 189 189 189 191 193 197 202 206 210 216 225 231 232 232 233 238 242 247 251 254 257 259 260 259 258 258 259 259 258 257 257 258 256 253 250 250 253 257 258 264
205 206 207 210 210 210 209 209 210 209 208 206 205 203 201 199 197 195 193 192 191 190 189 190 191 190 189 187 187 187 187 188 192 197 201 203 208 213 218 225 229 230 230 231 235 240 244 249 253 256 258 260 258 256 257 258 259 259 258 257 257 256 256 253 250 251 254 257 264
201 203 205 208 209 210 210 211 212 211 209 207 206 204 202 199 197 194 193 192 191 190 190 190 189 187 185 185 185 185 186 190 194 199 202 204 209 215 220 224 227 227 227 228 233 238 243 248 252 255 257 258 255 251 249 250 254 256 256 255 252 252 253 255 253 250 249 250 256